Powrót do katalogu

CZ-3B R/B

LostGTO
NORAD 100141·ROCKET BODY·🇨🇳 China

Wystrzelony Jul 23, 2026 z Xichang Satellite Launch Center

Loading…

TLE

NieaktualneSource: Space-Track

Epoka: Jul 23, 2026, 17:45 UTC

1 A0141U 26169B   26204.73997580  .00025348  36784-6  90778-3 0  9992
2 A0141  27.0240 118.0426 7326038 179.4901 182.3213  2.26436664    26

Śledź CZ-3B R/B w czasie rzeczywistym z AllMySat

Download on the App Store